This is the latest recevied weather packets stored in our database for station/object XE2G-31. If no packets are shown the sender has not sent any weather packets the latest 10 day(s).
| Time | Temp. | Humidity | Pressure | Rain* | Wind** | Luminosity | Snow |
|---|---|---|---|---|---|---|---|
| 1778066389 | 25° C | 42% | 867 hPa | - | - | - | - |
| 1778065442 | 25° C | 41% | 867 hPa | - | - | - | - |
| 1778064495 | 25.56° C | 41% | 867 hPa | - | - | - | - |
| 1778063549 | 25.56° C | 38% | 867 hPa | - | - | - | - |
| 1778062602 | 25.56° C | 37% | 867 hPa | - | - | - | - |
| 1778061655 | 25.56° C | 38% | 867 hPa | - | - | - | - |
| 1778060708 | 25.56° C | 40% | 867 hPa | - | - | - | - |
| 1778059761 | 25.56° C | 40% | 867 hPa | - | - | - | - |
| 1778058814 | 25.56° C | 38% | 867 hPa | - | - | - | - |
| 1778057868 | 25.56° C | 39% | 867 hPa | - | - | - | - |
| 1778056921 | 25.56° C | 40% | 867 hPa | - | - | - | - |
| 1778055974 | 25.56° C | 42% | 867 hPa | - | - | - | - |
| 1778055027 | 24.44° C | 53% | 867 hPa | - | - | - | - |
| 1778054080 | 24.44° C | 55% | 868 hPa | - | - | - | - |
| 1778053133 | 23.89° C | 61% | 868 hPa | - | - | - | - |
| 1778052187 | 24.44° C | 59% | 868 hPa | - | - | - | - |
| 1778051240 | 23.33° C | 66% | 868 hPa | - | - | - | - |
| 1778050293 | 24.44° C | 61% | 868 hPa | - | - | - | - |
| 1778049346 | 23.89° C | 66% | 869 hPa | - | - | - | - |
| 1778048399 | 25° C | 63% | 869 hPa | - | - | - | - |
| 1778047452 | 25° C | 63% | 869 hPa | - | - | - | - |
| 1778046506 | 25° C | 63% | 869 hPa | - | - | - | - |
| 1778045559 | 25° C | 62% | 869 hPa | - | - | - | - |
| 1778044612 | 25° C | 61% | 869 hPa | - | - | - | - |
| 1778043665 | 25.56° C | 58% | 869 hPa | - | - | - | - |
* Rain since midnight (hover to see other rain measurements)
** Current wind speed in m/s (hover to see current wind gust speed)